Flag for Italy Weather past 2 weeks in Ancona, Italy

Now
46 °F

Clear.


Feels Like: 46 °F
Forecast: 49 / 65 °F
Wind: 2 mph from North

Location: Falconara


UV Index: 5 (Moderate)

Visibility: 10 mi


Pressure: 29.68 "Hg

Humidity: 82%

Dew point: 41 °F

Location of AnconaLocation

Historic Weather in Ancona

°F

Ancona temperature yesterday

Maximum temperature yesterday: 61 °F (at 11:50 AM)
Minimum temperature yesterday: 43 °F (at 5:50 AM)
Average temperature yesterday: 53 °F

Past Weeks' High & Low Weather Summary

 TemperatureHumidityPressure
High79 °F (Apr 8, 2:50 PM)100% (Apr 4, 4:50 PM)30.15 "Hg (Apr 4, 4:50 PM)
Low41 °F (Apr 10, 6:50 AM)34% (Apr 8, 2:50 PM)29.62 "Hg (Apr 4, 8:50 AM)
Average56 °F75%29.97 "Hg
* Reported Apr 4 12:50 AM — Apr 19 12:50 AM, Ancona, Weather by CustomWeather, © 2014

Note: Actual official high and low records may vary slightly from our data, if they occured in-between our weather recording intervals... More about our weather records

Advertising

Historic Weather Conditions — Data for Previous 24 hours

 ConditionsComfort  
Time TempWeatherWind HumidityBarometerVisibility
12:50 AM
Apr 19
48 °FClear.6 mph71%29.68 "Hg10 mi
11:50 PM
Apr 18
48 °FClear.5 mph71%29.68 "Hg10 mi
10:50 PM50 °FClear.5 mph67%29.68 "Hg10 mi
9:50 PM50 °FClear.3 mph71%29.71 "Hg10 mi
8:50 PM52 °FSunny.3 mph67%29.68 "Hg10 mi
7:50 PM55 °FSunny.2 mph55%29.68 "Hg10 mi
6:50 PM61 °FSunny.1 mph45%29.68 "Hg10 mi
5:50 PM57 °FPassing clouds.5 mph59%29.71 "HgN/A
4:50 PM59 °FSunny.8 mph59%29.71 "Hg10 mi
3:50 PM61 °FPassing clouds.8 mph52%29.74 "HgN/A
2:50 PM61 °FPassing clouds.7 mph55%29.77 "HgN/A
1:50 PM61 °FPassing clouds.8 mph59%29.77 "HgN/A
12:50 PM59 °FSunny.9 mph55%29.80 "Hg10 mi
11:50 AM61 °FPassing clouds.9 mph52%29.83 "HgN/A
10:50 AM59 °FPassing clouds.8 mph51%29.83 "HgN/A
9:50 AM57 °FPassing clouds.8 mph59%29.83 "HgN/A
8:50 AM54 °FPassing clouds.5 mph72%29.86 "HgN/A
7:50 AM48 °FSunny.6 mph76%29.86 "Hg10 mi
6:50 AM45 °FPassing clouds.6 mph87%29.86 "HgN/A
5:50 AM43 °FPassing clouds.5 mph87%29.89 "HgN/A
4:50 AM45 °FPassing clouds.5 mph87%29.89 "HgN/A
3:50 AM46 °FPassing clouds.2 mph87%29.92 "HgN/A
2:50 AM45 °FPassing clouds.5 mph87%29.92 "HgN/A
Weather by CustomWeather, © 2014

See weather overview